TimeMST,TemperatureF,Dew PointF,Humidity,Sea Level PressureIn,VisibilityMPH,Wind Direction,Wind SpeedMPH,Gust SpeedMPH,PrecipitationIn,Events,Conditions,WindDirDegrees,DateUTC
12:53 AM,30.0,18.0,61,30.27,10.0,Calm,Calm,-,N/A,,Clear,0,2012-11-16 07:53:00
1:53 AM,25.0,10.9,55,30.28,10.0,NNW,3.5,-,N/A,,Clear,330,2012-11-16 08:53:00
2:53 AM,26.1,14.0,60,30.26,10.0,Calm,Calm,-,N/A,,Clear,0,2012-11-16 09:53:00
3:53 AM,28.9,17.1,61,30.23,10.0,West,3.5,-,N/A,,Clear,270,2012-11-16 10:53:00
4:53 AM,32.0,19.0,59,30.25,10.0,Calm,Calm,-,N/A,,Clear,0,2012-11-16 11:53:00
5:53 AM,28.0,16.0,61,30.25,10.0,Calm,Calm,-,N/A,,Clear,0,2012-11-16 12:53:00
6:53 AM,33.1,19.9,59,30.25,10.0,Calm,Calm,-,N/A,,Clear,0,2012-11-16 13:53:00
7:53 AM,32.0,19.9,61,30.28,10.0,Calm,Calm,-,N/A,,Clear,0,2012-11-16 14:53:00
8:53 AM,39.9,21.9,49,30.26,10.0,East,3.5,-,N/A,,Scattered Clouds,80,2012-11-16 15:53:00
9:53 AM,39.9,21.9,49,30.27,10.0,East,3.5,-,N/A,,Overcast,100,2012-11-16 16:53:00
10:53 AM,42.1,23.0,47,30.27,10.0,NW,8.1,-,N/A,,Overcast,320,2012-11-16 17:53:00
11:53 AM,45.0,21.9,40,30.22,10.0,Calm,Calm,-,N/A,,Overcast,0,2012-11-16 18:53:00
12:53 PM,46.0,23.0,40,30.20,10.0,NNW,4.6,-,N/A,,Overcast,330,2012-11-16 19:53:00
1:53 PM,48.0,23.0,37,30.18,10.0,NW,3.5,-,N/A,,Overcast,320,2012-11-16 20:53:00
2:53 PM,50.0,21.9,33,30.15,10.0,WNW,5.8,-,N/A,,Overcast,300,2012-11-16 21:53:00
3:53 PM,50.0,21.9,33,30.14,10.0,Calm,Calm,-,N/A,,Overcast,0,2012-11-16 22:53:00
4:53 PM,50.0,21.9,33,30.12,10.0,Calm,Calm,-,N/A,,Overcast,0,2012-11-16 23:53:00
5:53 PM,46.0,21.0,37,30.15,10.0,NW,6.9,-,N/A,,Mostly Cloudy,320,2012-11-17 00:53:00
6:53 PM,45.0,19.9,37,30.16,10.0,NW,10.4,-,N/A,,Overcast,320,2012-11-17 01:53:00
7:53 PM,43.0,19.9,40,30.16,10.0,NW,10.4,-,N/A,,Overcast,320,2012-11-17 02:53:00
8:53 PM,41.0,19.0,41,30.15,10.0,Calm,Calm,-,N/A,,Scattered Clouds,0,2012-11-17 03:53:00
9:53 PM,42.1,19.9,41,30.16,10.0,Calm,Calm,-,N/A,,Scattered Clouds,0,2012-11-17 04:53:00
10:53 PM,41.0,19.9,43,30.16,10.0,NNW,8.1,-,N/A,,Overcast,330,2012-11-17 05:53:00
11:53 PM,39.9,25.0,55,30.16,10.0,NE,3.5,-,0.00,Rain,Light Rain,40,2012-11-17 06:53:00